Regional Weather Roundup
Issued by NWS

Home | Current Version | Previous Version | Graphics & Text | Print | Product List | Glossary On
Versions: 1 2 3 4 5 6 7 8 9 10 11 12 13 14 15 16 17 18 19 20 21 22 23 24 25 26 27 28 29 30 31 32 33 34 35 36 37 38 39 40 41 42 43 44 45 46 47 48 49 50
000
ASUS43 KIND 200459
RWRIN

WEATHER ROUNDUP FOR INDIANA
NATIONAL WEATHER SERVICE INDIANAPOLIS IN
1200 AM EST MON NOV 20 2017

NOTE: "FAIR" INDICATES FEW OR NO CLOUDS BELOW 12,000 FEET WITH NO
SIGNIFICANT WEATHER AND/OR OBSTRUCTIONS TO VISIBILITY.

* - STATION DOES NOT REPORT WEATHER SUCH AS PRECIPITATION OR FOG.

+ - STATION NOT QUALITY CONTROLLED BY THE NATIONAL WEATHER SERVICE.
    USE DATA WITH CAUTION...ESPECIALLY DEWPOINT AND RELATIVE
    HUMIDITY OBSERVATIONS.

INZ001>003-010>013-019-020-200600-
NORTHWEST INDIANA

CITY           SKY/WX    TMP DP  RH WIND       PRES   REMARKS
KNOX *+        PTCLDY    28  23  80 W6        30.10R WCI  22
LA PORTE +     PTCLDY    28  20  73 W8        30.08F WCI  20
MONTICELLO +   CLEAR     28  22  79 SW5       30.12R WCI  22

$$

LMZ046-743>745-200600-
SOUTHERN LAKE MICHIGAN

STATION/POSITION TIME  TEMP    WIND        PRES    WAVE
                       AIR SEA DIR/SP/G            HT
                 (UTC) (F)     (DEG/KT/KT) (MB)    (FT)
BURNS HARBOR     0440   30     210/  8/ 12 1019.3S
MICHIGAN CITY    0430   32     210/ 15/ 18   N/A

$$

INZ004-005-014>016-021>024-200600-
NORTH CENTRAL INDIANA

CITY           SKY/WX    TMP DP  RH WIND       PRES   REMARKS
GOSHEN         CLEAR     28  20  71 W13       30.07R WCI  17
PERU/GRISSOM   CLEAR     27  24  89 W9        30.11R WCI  18
SOUTH BEND     CLEAR     26  21  81 SW8       30.07F WCI  18
WARSAW +       CLEAR     28  21  74 W7        30.09S WCI  21

$$

INZ006>009-017-018-025>027-200600-
NORTHEAST INDIANA

CITY           SKY/WX    TMP DP  RH WIND       PRES   REMARKS
AUBURN +       CLEAR     30  21  69 SW7       30.08R WCI  23
FORT WAYNE     CLEAR     30  23  75 W13       30.09S WCI  20
KENDALLVILLE + CLEAR     28  22  79 W10       30.06R WCI  18

$$

INZ028-029-035-036-043>045-051>053-200600-
WEST CENTRAL INDIANA

CITY           SKY/WX    TMP DP  RH WIND       PRES   REMARKS
LAFAYETTE      CLEAR     27  23  85 SW5       30.14F WCI  22
TERRE HAUTE    CLEAR     28  22  78 SW3       30.18S

$$

INZ030>032-037>040-046>048-054>057-064-065-200600-
CENTRAL INDIANA

CITY           SKY/WX    TMP DP  RH WIND       PRES   REMARKS
GREENWOOD *+   PTCLDY    30  25  80 SW5       30.16S WCI  25
INDIANAPOLIS   CLEAR     26  21  81 SW8       30.15F WCI  18
-EAGLE CREEK   CLEAR     28  20  71 SW3       30.14S
MT COMFORT *+  CLEAR     27  25  93 SW5       30.14S WCI  21
SHELBYVILLE    CLEAR     26  20  77 SW7       30.15S WCI  18

$$

INZ033-034-041-042-049-050-058-059-200600-
EAST CENTRAL INDIANA

CITY           SKY/WX    TMP DP  RH WIND       PRES   REMARKS
MUNCIE         CLEAR     29  22  75 W7        30.12S WCI  22
RICHMOND +     CLEAR     27  25  93 W9        30.12F WCI  17

$$

INZ060-061-067>069-081>083-085>088-200600-
SOUTHWEST INDIANA

CITY           SKY/WX    TMP DP  RH WIND       PRES   REMARKS
EVANSVILLE     CLEAR     26  23  88 W3        30.24S
HUNTINGBURG +  CLEAR     27  24  89 CALM      30.22F

$$

INZ062-063-066-070>080-084-089>092-200600-
SOUTH CENTRAL AND SOUTHEAST INDIANA

CITY           SKY/WX    TMP DP  RH WIND       PRES   REMARKS
BLOOMINGTON    CLEAR     29  20  69 W5        30.17S WCI  24
MADISON *+     CLEAR     30  23  74 W5        30.20S WCI  25
SEYMOUR +      CLEAR     27  21  80 SW5       30.19S WCI  21

$$





USA.gov is the U.S. government's official web portal to all federal, state and local government web resources and services.